sat.trackr.live / text

‹ back to catalog

STARLINK-11197 [DTC]

NORAD 60186 · 2024-124D

PAYLOAD ACTIVE UNKNOWN

§ Identity

Operator
Country
US
Launch date
2024-07-03
Launch site
AFETR
Launch vehicle
Mass (kg)
RCS (m²)

Purposes: comms

External: N2YO · Heavens-Above · Gunter

§ Orbital elements

Epoch: 2026-05-24T21:03:18.792576Z

Period
91.74 min
Inclination
53.1587°
Eccentricity
0.0000961
Mean motion
15.69701818 rev/d
Perigee alt
359.1 km
Apogee alt
360.4 km
Semi-major
6,737.9 km
B*
1.8482e-6
RAAN
145.4282°
Arg perigee
86.8654°
Mean anomaly
273.2474°
Rev number
10,850

§ Raw data

STARLINK-11197 [DTC]1 60186U 24124D   26144.87730084 -.00000364  00000+0  18482-5 0  99992 60186  53.1587 145.4282 0000961  86.8654 273.2474 15.69701818108500

JSON: /api/v1/satellites/60186 · /tle

For live sub-satellite position, see the globe view (requires WebGL).

§ Visibility from observer

Set your observer location to see the next 7 days of passes ≥ 10°. The values pass through the URL so the page stays shareable.

No JS? Fill the form by hand. The geolocation button needs JavaScript.